FW5735 Weather Reports


Display with metric or nautical units.
time (UTC)temp
F
wind
direction
speed
MPH
gust
MPH
rain 1hr
in
rain 24hr
in
rain mn
in
humidity
%
barometer
mb
20260507184533 54 165 5.0 8.0 0.17 0.71 0.71 98 1002.0
20260507183031 55 230 3.0 9.0 0.19 0.66 0.66 97 1003.0
20260507181523 55 173 6.0 10.0 0.26 0.62 0.62 97 1002.8
20260507180039 55 153 4.0 8.0 0.31 0.59 0.59 98 1003.1
20260507174525 55 182 4.0 10.0 0.37 0.53 0.53 98 1003.5
20260507173027 56 171 2.0 14.0 0.43 0.47 0.47 98 1003.3
20260507171520 56 222 4.0 10.0 0.35 0.36 0.36 98 1004.1
20260507170036 56 226 8.0 15.0 0.26 0.27 0.27 97 1004.2
20260507164517 56 238 8.0 16.0 0.14 0.14 0.14 96 1004.1
20260507163015 57 204 11.0 23.0 0.04 0.04 0.04 96 1003.5
20260507161512 57 179 11.0 24.0 0.02 0.02 0.02 95 1003.4
20260507160014 57 195 12.0 19.0 0.01 0.01 0.01 96 1003.5
20260507154510 57 191 9.0 21.0 0.00 0.00 0.00 95 1004.1
20260507153008 57 188 8.0 20.0 0.00 0.00 0.00 94 1004.6
20260507151504 57 206 9.0 17.0 0.00 0.00 0.00 94 1005.1
20260507150004 57 163 9.0 23.0 0.00 0.00 0.00 94 1005.1
20260507144501 57 172 11.0 23.0 0.00 0.00 0.00 93 1005.7
20260507143107 56 217 9.0 22.0 0.00 0.00 0.00 94 1006.1
20260507141559 56 155 10.0 21.0 0.00 0.00 0.00 94 1006.3
20260507140101 56 150 11.0 25.0 0.00 0.00 0.00 94 1006.5
20260507134553 57 154 9.0 22.0 0.00 0.00 0.00 92 1006.8
20260507133051 58 178 9.0 24.0 0.00 0.00 0.00 91 1006.9
20260507131551 58 199 12.0 25.0 0.00 0.00 0.00 88 1007.1
20260507130101 58 193 12.0 22.0 0.00 0.00 0.00 88 1007.3
20260507124552 58 193 13.0 25.0 0.00 0.00 0.00 89 1007.5
20260507123045 58 185 14.0 24.0 0.00 0.00 0.00 90 1007.7
20260507121551 57 186 12.0 19.0 0.00 0.00 0.00 89 1007.9
20260507120043 57 136 10.0 24.0 0.00 0.00 0.00 89 1007.7
20260507114545 58 183 13.0 25.0 0.00 0.00 0.00 88 1007.9
20260507113045 58 177 11.0 24.0 0.00 0.00 0.00 90 1007.9
20260507111537 57 226 12.0 19.0 0.00 0.00 0.00 91 1008.4
20260507110043 57 198 13.0 19.0 0.00 0.00 0.00 92 1008.5
20260507104541 56 165 8.0 17.0 0.00 0.00 0.00 93 1008.5
20260507103048 56 211 9.0 19.0 0.00 0.00 0.00 93 1008.6
20260507101535 56 186 6.0 21.0 0.00 0.00 0.00 93 1008.7
20260507100031 56 238 10.0 18.0 0.00 0.00 0.00 93 1008.5
20260507094531 55 173 10.0 19.0 0.00 0.00 0.00 94 1008.5
20260507093028 55 167 11.0 17.0 0.00 0.00 0.00 94 1008.9
20260507091534 55 148 13.0 22.0 0.00 0.00 0.00 94 1009.0
20260507090027 55 185 10.0 16.0 0.00 0.00 0.00 92 1009.3
20260507084537 54 167 7.0 15.0 0.00 0.00 0.00 91 1009.0
20260507083019 54 167 8.0 12.0 0.00 0.00 0.00 91 1009.3
20260507081516 54 196 8.0 15.0 0.00 0.00 0.00 90 1010.2
20260507080013 53 171 9.0 15.0 0.00 0.00 0.00 91 1010.3
20260507074512 52 185 4.0 9.0 0.00 0.00 0.00 92 1010.4
20260507073012 52 224 5.0 9.0 0.00 0.00 0.00 92 1010.5
20260507071508 52 193 7.0 11.0 0.00 0.00 0.00 92 1010.6
20260507070011 51 200 2.0 6.0 0.00 0.00 0.00 93 1010.7
20260507064505 51 183 5.0 11.0 0.00 0.00 0.00 92 1011.4
20260507063004 51 221 8.0 11.0 0.00 0.00 0.00 92 1011.9
20260507061559 51 204 8.0 17.0 0.00 0.00 0.00 92 1012.2
20260507060105 51 221 9.0 14.0 0.00 0.00 0.00 92 1012.2
20260507054612 51 205 7.0 10.0 0.00 0.00 0.00 92 1012.3
20260507053105 51 214 5.0 7.0 0.00 0.00 0.00 92 1012.4
20260507051555 51 194 4.0 10.0 0.00 0.00 0.00 92 1012.6
20260507050053 51 200 4.0 8.0 0.00 0.00 0.00 91 1012.9
20260507044553 51 196 5.0 10.0 0.00 0.00 0.00 91 1013.6
20260507043042 51 218 5.0 9.0 0.00 0.00 0.00 91 1014.1
20260507041545 51 253 4.0 7.0 0.00 0.00 0.00 91 1014.4
20260507040041 51 194 5.0 8.0 0.00 0.00 0.00 90 1014.6
20260507034536 51 223 4.0 10.0 0.00 0.00 0.00 90 1014.7
20260507033033 52 187 6.0 10.0 0.00 0.00 0.00 89 1015.0
20260507031530 52 173 3.0 6.0 0.00 0.00 0.00 88 1015.3
20260507030026 53 203 6.0 11.0 0.00 0.00 0.00 87 1015.5
20260507024533 53 199 7.0 11.0 0.00 0.00 0.00 87 1015.5
20260507023025 53 223 6.0 11.0 0.00 0.00 0.00 87 1015.6
20260507021530 53 178 8.0 14.0 0.00 0.00 0.00 86 1015.7
20260507020021 53 185 8.0 14.0 0.00 0.00 0.00 87 1015.8
20260507014518 53 187 4.0 10.0 0.00 0.00 0.00 87 1015.8
20260507013015 53 211 6.0 12.0 0.00 0.00 0.00 86 1016.1
20260507011518 54 213 6.0 11.0 0.00 0.00 0.00 86 1016.3
20260507010014 55 219 7.0 14.0 0.00 0.00 0.00 84 1016.3
20260507004507 55 187 6.0 12.0 0.00 0.00 0.00 84 1016.2
20260507003006 56 198 8.0 14.0 0.00 0.00 0.00 82 1016.1
20260507001505 57 208 9.0 15.0 0.00 0.00 0.00 81 1016.3
20260507000007 58 214 6.0 14.0 0.00 0.00 0.00 80 1016.1
20260506234504 58 176 6.0 18.0 0.00 0.00 0.00 79 1016.0
20260506233002 59 205 8.0 17.0 0.00 0.00 0.00 78 1016.3
20260506231602 60 173 9.0 14.0 0.00 0.00 0.00 77 1016.2
20260506230105 61 199 9.0 18.0 0.00 0.00 0.00 76 1015.8
20260506224600 61 223 9.0 23.0 0.00 0.00 0.00 75 1015.7
20260506223104 62 195 8.0 16.0 0.00 0.00 0.00 74 1015.7
20260506221604 63 212 12.0 19.0 0.00 0.00 0.00 74 1015.4
20260506220058 63 185 8.0 16.0 0.00 0.00 0.00 74 1015.3
20260506214600 64 227 14.0 27.0 0.00 0.00 0.00 74 1015.1
20260506213100 64 167 9.0 17.0 0.00 0.00 0.00 73 1015.1
20260506211557 64 217 14.0 25.0 0.00 0.00 0.00 72 1015.3
20260506210055 65 195 16.0 30.0 0.00 0.00 0.00 72 1015.3
20260506204556 66 182 12.0 26.0 0.00 0.00 0.00 68 1015.0
20260506203054 66 225 12.0 25.0 0.00 0.00 0.00 70 1015.0
20260506201553 66 215 17.0 27.0 0.00 0.00 0.00 68 1015.0
20260506200052 67 213 17.0 28.0 0.00 0.00 0.00 68 1015.3
20260506194552 67 200 15.0 22.0 0.00 0.00 0.00 66 1015.1
20260506193055 68 190 10.0 26.0 0.00 0.00 0.00 66 1015.3
20260506191558 69 221 14.0 24.0 0.00 0.00 0.00 66 1015.1
20260506190052 68 215 12.0 25.0 0.00 0.00 0.00 68 1015.4